Location: Unspecified
(0.0000°N, 0.0000°E)
Time: 13:48:15
(UTC+00:00)

Oscar 18 - Pass Details

Date: 10 June 2023
Orbit: 773 x 788 km, 98.9° (Epoch: 23 September)

Event Time Altitude Azimuth Distance (km) Brightness Sun altitude
Rises 03:52:53 0° 23° (NNE) 3,242 14.5 -28.9°
Reaches altitude 10° 03:55:15 10° 29° (NNE) 2,315 13.7 -28.3°
Maximum altitude 04:00:10 48° 103° (ESE) 999 11.4 -27.2°
Enters shadow 04:02:13 31° 158° (SSE) 1,333 11.7 -26.8°
